{"data":{"norad_id":45072,"intl_designator":"2020-006AE","name":"STARLINK-1168","alt_names":[],"object_type":"PAYLOAD","status":"ACTIVE","operator":null,"country":"US","launch_date":"2020-01-29","launch_site_code":"AFETR","launch_vehicle":null,"mission":null,"orbit_class":"UNKNOWN","rcs_meters":null,"size_class":null,"mass_kg":null,"dimensions":null,"purposes":["comms"],"wikipedia_slug":null,"has_3d_model":false,"image_url":null,"decayed_at":null,"tle_current":{"epoch":"2026-09-20T04:32:09.522240Z","epoch_age_seconds":41355,"freshness":"FRESH","line1":"1 45072U 20006AE  26263.18899910  .00032245  00000+0  69788-3 0  9996","line2":"2 45072  53.1526  66.3929 0000257 306.1455  53.9528 15.44199591366763","mean_motion":15.44199591,"eccentricity":2.57e-5,"inclination_deg":53.1526,"raan_deg":66.3929,"arg_perigee_deg":306.1455,"mean_anomaly_deg":53.9528,"bstar":0.00069788,"rev_number":36676,"period_min":93.252194107076,"perigee_km":433.55586637275,"apogee_km":433.90599638442,"semimajor_km":6811.8679313786,"source":"CELESTRAK","updated_at":"2026-09-20T09:00:38.224063Z"}}}